Montana Department of Transportation

Main Content

Accidents and Incidents Report

Hourly Weather Roundup

ASUS45 KTFX 261410

RWRMT 

MONTANA REGIONAL WEATHER ROUNDUP

NATIONAL WEATHER SERVICE GREAT FALLS MT

800 AM MDT FRI APR 26 2019



NOTE: "FAIR" INDICATES FEW OR NO CLOUDS BELOW 12000 FEET WITH NO

SIGNIFICANT WEATHER AND/OR OBSTRUCTIONS TO VISIBILITY.



MTZ001.007-043-261500-

WEST OF THE DIVIDE

  

CITY           SKY/WX    TMP DP  RH WIND       PRES   REMARKS

KALISPELL      CLOUDY    43  32  65 W6        29.91R                  

MISSOULA       PTSUNNY   42  34  73 NW3       29.91S                  

BUTTE          FAIR      39  27  62 S5        29.91F                  

MULLAN PASS    CLOUDY    36  23  59 VRB5      29.93S                  

ANACONDA         N/A     39  30  70 CALM      29.90F                  

DEER LODGE       N/A     39  32  75 CALM      29.92S                  

HAMILTON       CLOUDY    41  36  81 CALM      29.92S                  

RONAN            N/A     45  39  81 CALM      29.90S                  

--------------------------------



MTZ008-052.055-261500-

SOUTHWEST MONTANA

  

CITY           SKY/WX    TMP DP  RH WIND       PRES   REMARKS

BOZEMAN        CLOUDY    42  33  70 CALM      29.88S                  

DILLON         CLOUDY    40  36  86 SE9       29.90R                  

ENNIS          CLOUDY    45  30  57 NW17      29.95R                  

W YELLOWSTONE  PTSUNNY   32  25  74 S7        29.98S WCI  26          

THREE FORKS      N/A     39  35  85 CALM      29.89S                  

--------------------------------



MTZ009-010-012-014-046-048-049-054-261500-

EAST SLOPES AND CENTRAL MONTANA

  

CITY           SKY/WX    TMP DP  RH WIND       PRES   REMARKS

CUT BANK       CLOUDY    40  28  62 SW6       29.90R                  

GREAT FALLS    CLOUDY    42  37  82 E5        29.85F                  

HELENA         FAIR      44  32  62 W3        29.88F                  

AUGUSTA        CLOUDY    42  29  59 W9        29.87S                  

BOWMANS CRNR   FAIR      39  31  72 W3        29.85S                  

CHOTEAU          N/A     39  34  81 N6        29.88S                  

FAIRFIELD      PTSUNNY   41  32  69 NW8       29.87R                  

POWER          PTSUNNY   40  33  76 NW6       29.87R                  

RAYNESFORD     PTSUNNY   45  33  63 NW9G16    29.87S                  

ULM            PTSUNNY   43  37  79 CALM      29.87F                  

WHITE SULPHUR    N/A     37  34  87 CALM      29.88F HAZE             

--------------------------------



MTZ011-013-016-021-045-047-050-051-261500-

NORTH CENTRAL MONTANA

  

CITY           SKY/WX    TMP DP  RH WIND       PRES   REMARKS

HAVRE          PTSUNNY   45  29  53 E14       29.88F                  

LEWISTOWN      PTSUNNY   42  30  62 SE7       29.87F                  

N BAR RANCH    FAIR      37  30  75 CALM      29.92F                  

DENTON         FAIR      42  33  71 E3        29.84F                  

FORT BENTON      N/A     45  30  57 CALM      29.88F                  

GEYSER         PTSUNNY   42  34  73 CALM      29.86F                  

GRASS RANGE    FAIR      39  33  78 CALM      29.87F                  

JUDITH GAP     CLOUDY    41  33  74 SW8       29.90F                  

ROY            FAIR      39  32  77 S20       29.88F WCI  29          

STANFORD       FAIR      44  33  66 CALM      29.85F                  

WINIFRED       FAIR      39  33  79 E9        29.86F                  

--------------------------------



MTZ017.020-022.027-061-062-261500-

NORTHEAST MONTANA

  

CITY           SKY/WX    TMP DP  RH WIND       PRES   REMARKS

GLASGOW          N/A     44  15  31 E15       30.00F                  

GLENDIVE       PTSUNNY   39  22  50 E3        30.06F                  

JORDAN           N/A     45  23  42 E12       29.98F                  

MALTA          MOSUNNY   43  25  49 E7        29.96F                  

SIDNEY         FAIR      36  22  56 NE3       30.08F                  

WOLF POINT     FAIR      42  18  37 E12       30.05F                  

POPLAR           N/A     45  18  33 E3        30.06F--------------------------------



MTZ028.42-056.058-261500-

SOUTHCENTRAL AND SOUTHEAST MONTANA

  

CITY           SKY/WX    TMP DP  RH WIND       PRES   REMARKS

BAKER          CLOUDY    37  23  56 E13       30.07F WCI  29          

BILLINGS       PTSUNNY   43  33  68 CALM      29.92F                  

LIVINGSTON     CLOUDY    38  32  79 NW5       29.91S                  

MILES CITY     CLOUDY    45  24  43 E7        29.99F                  

BIG TIMBER     SUNNY     37  34  87 CALM      29.92F                  

FORSYTH          N/A     45  27  49 E13       29.95F                  

HARLOWTON      PTSUNNY   38  34  84 W7        29.91F                  

LAUREL           N/A     39  36  87 SW5       29.93F                  

--------------------------------



REGIONAL REPORTS...DAKOTAS

  

CITY           SKY/WX    TMP DP  RH WIND       PRES   REMARKS

WILLISTON      FAIR      39  22  50 CALM      30.10F                  

MINOT          FAIR      40  19  43 NW5       30.10F                  

DICKINSON      FAIR      40  20  44 S7        30.08F                  

BEACH          FAIR      41  12  30 S12       30.08F                  

CROSBY         FAIR      39  23  52 S5        30.10F                  

TIOGA          FAIR      36  21  55 CALM      30.11F                  

WATFORD CITY   FAIR      37  18  44 SE5       30.09F                  

BISMARCK       FAIR      40  16  37 CALM      30.14S                  

GRAND FORKS    FAIR      41  32  70 NW6       30.11R                  

FARGO          FAIR      44  34  67 NW10      30.11S                  

BUFFALO SD       N/A     40  22  48 E12       30.05F                  

RAPID CITY     FAIR      41  32  70 SE8       30.07F                  

--------------------------------



REGIONAL REPORTS...WYOMING/IDAHO/WASHINGTON

  

CITY           SKY/WX    TMP DP  RH WIND       PRES   REMARKS

GILLETTE       FAIR      42  31  64 S22G36    29.94F                  

SHERIDAN       FAIR      41  36  82 CALM      29.90F                  

BUFFALO WY     FAIR      42  35  76 S10       29.89F                  

CODY           FAIR      37  33  85 S3        29.93F                  

YELLOWSTONE LA   N/A     30  24  78 CALM      30.04F                  

IDAHO FALLS    LGT RAIN  46  41  82 NE3       29.93F                  

SALMON         CLOUDY    43  38  82 NW3       29.91S                  

BOISE          FAIR      51  42  71 CALM      29.95R                  

SPOKANE        LGT RAIN  49  38  65 W13       29.96R                  

--------------------------------



REGIONAL REPORTS...ALBERTA

  

CITY           SKY/WX    TMP DP  RH WIND       PRES   REMARKS

CALGARY        CLOUDY    34  14  44 N14       29.98R WCI  24          

EDMONTON       MOSUNNY   39  23  52 SW6       30.08F                  

FORT MCMURRAY  CLOUDY    30  23  74 NE5       30.15R                  

HIGH LEVEL     MOSUNNY   28  27  93 N6        30.17S WCI  22          

LETHBRIDGE     CLOUDY    43  19  39 NW17      29.91R                  

LLOYDMINSTER   PTSUNNY   39  21  48 W12       30.06S WCI  32          

MEDICINE HAT   CLOUDY    46  25  42 NE9       29.93S                  

ONEFOUR          N/A     43  21  42 E14         N/A                   

PEACE RIVER    MOSUNNY   30  19  64 NE7       30.12R WCI  23          

PINCHER CREEK  CLOUDY    41  23  48 NW6       29.92S                  

RAYMOND          N/A     45  18  33 NW9         N/A                   

--------------------------------



REGIONAL REPORTS...SASKATCHEWAN

  

CITY           SKY/WX    TMP DP  RH WIND       PRES   REMARKS

CORONACH         N/A     39  18  41 SE6         N/A                   

CYPRESS HILLS    N/A     37  14  38 SE9         N/A  WCI  31          

ESTEVAN        SUNNY     36  18  48 NW5       30.10S                  

MOOSE JAW        N/A     39  16  38 SE2         N/A                   

PRINCE ALBERT  MOSUNNY   36  27  69 E2        30.11S                  

REGINA         MOSUNNY   39  16  38 VRB2      30.09F                  

SASKATOON      PTSUNNY   34  16  47 CALM      30.10S                  

SWIFT CURRENT  CLOUDY    39  14  35 E10       30.01F                  

--------------------------------